Погода в Больших Озерках

Россия / Орловская область     53°12′40″N   37°28′07″E
темп.,
°C
ветер,
м/с
пор.,
м/с
влажн.,
%
обл.,
%
осадки,
мм/ч
давл.,
гПа
погр.,
м
15 апреля, чт
чт1500:00+12в2253100 0.0 101519
03:00+11в2262100 0.0 101428
06:00+10вюв3871100 0.0 1014168
09:00+13вюв475899 0.0 1014313
12:00+16юв4647100 0.0 10131024
15:00+16юв61048100 0.1 10131873
18:00+15ю4761100 0.3 1013738
21:00+12в3578100 1.1 101488
16 апреля, пт
пт1600:00+11ююв22738 0.2 101423
03:00+9в347899 0.2 101550
06:00+9в498798 0.0 1016248
09:00+11юв3779100 0.1 1017359
12:00+14вюв4659100 0.2 1016805
15:00+15вюв5657100 3.1 10161210
18:00+13в1174100 2.8 101659
21:00+10всв248769 6.5 1017122
17 апреля, сб
сб1700:00+9всв369158 0.0 1018130
03:00+8св4797100 1.3 1018145
06:00+9всв4797100 0.3 1018205
09:00+10св5888100 1.9 1019349
12:00+12всв5776100 0.6 1019890
15:00+14в7126798 1.8 10181410
18:00+12вюв3978100 2.8 1018466
21:00+11св3889100 4.4 1020411
18 апреля, вс
вс1800:00+9всв61282100 0.1 1021412
03:00+7св6118249 0.1 1022349
06:00+6всв5117565 0.0 1023385
09:00+9всв69632 0.0 1024536
12:00+12всв67525 0.0 10251024
15:00+13всв67465 0.0 10251399
18:00+12всв57490 0.0 1025859
21:00+9всв410640 0.0 1027240
19 апреля, пн
пн1900:00+7всв410700 0.0 1028220
03:00+6в397530 0.0 1029169
06:00+5в4107865 0.0 1029204
09:00+9вюв6106591 0.0 1029535
12:00+12вюв795130 0.0 10281556
15:00+13вюв8947100 0.0 10271898
18:00+11вюв91161100 0.0 10261039
21:00+8вюв7136373 0.0 1027707